Torna al catalogo

STARLINK-3271

AttivoComunicazioniVLEO
NORAD 50167·PAYLOAD·🇺🇸 United States

Lanciato Dec 18, 2021 da Vandenberg Space Force Base

Loading…

Prossimi Passaggi (prossime 24 ore)

TLE

AggiornatoSource: CelesTrak SupGP

Epoca: Sep 14, 2026, 21:06 UTC

1 50167C 21125M   26257.87965278 -.00020673  00000+0 -59168-3 0  2572
2 50167  53.1579 118.7195 0001346  83.6666 328.7826 15.35397970    18

Traccia STARLINK-3271 in tempo reale con AllMySat

Download on the App Store